[[{"header":{"parameterUnit":"m.s-1","parameterCategory":1,"la1":30.2991,"la2":30.254,"lo1":-89.0895,"lo2":-89.0444,"dx":0.0017,"dy":0.0017,"nx":28,"ny":28,"refTime":"2022-12-02T09:00:00:Z","depth":0,"parameterNumber":2,"parameterNumberName":"U-component_of_WINDS"},"data":[0,0,0,0,0,0,0,0,0,0,0,0,0,0,0,0,0,0,0,0,0,0,0,0,0,0,0,0,0,0,0,0,0,0,0,0,0,0,0,0,0,0,0,0,0,0,0,0,0,0,0,0,0,0,0,0,0,0,0.5804,0.5805,0,0.5878,0.5879,0.588,0.5881,0.588,0.5879,0.5878,0.5957,0.596,0.5963,0,0,0,0,0,0,0,0,0,0,0,0,0,0.5664,0.5667,0.5804,0.5805,0.5806,0.5878,0.5879,0.588,0.5881,0.588,0.5879,0.5878,0.5956,0.596,0.5963,0,0,0,0,0,0,0,0,0,0,0,0,0,0.5731,0.5668,0.5804,0.5815,0.5817,0.5878,0.5879,0.5881,0.5882,0.588,0.5879,0.5877,0.5955,0.5959,0.5964,0.602,0,0,0.5977,0.5979,0,0,0,0,0,0,0,0,0.5727,0.5736,0.5812,0.5814,0.5816,0.5869,0.5859,0.5927,0.5882,0.5857,0.5878,0.5877,0.5929,0.5936,0.5953,0.6023,0.6027,0.5978,0.5981,0.5982,0.5984,0,0,0,0,0,0,0,0.5722,0.5733,0.5833,0.5813,0.5816,0.5817,0.5825,0.5872,0.59,0.5859,0.5859,0.5868,0.593,0.5948,0.5955,0.6028,0.5978,0.5982,0.5984,0.5986,0.6149,0.6151,0,0,0,0,0,0,0.5715,0.5729,0.5831,0.5836,0.5767,0.582,0.5829,0.5853,0.59,0.5905,0.5869,0.5868,0.5942,0.5949,0.5957,0.6027,0.5982,0.5987,0.5989,0.6147,0.6149,0.6151,0,0,0,0,0,0,0.5712,0.5724,0.5828,0.5782,0.5795,0.5824,0.5852,0.5856,0.5874,0.5907,0.5912,0.5883,0.5941,0.5951,0.6004,0.6029,0.5989,0.5993,0.6145,0.6148,0.615,0.6165,0,0,0,0,0,0,0.5708,0.5723,0.5744,0.5783,0.5798,0.5873,0.5853,0.5858,0.5882,0.5881,0.5921,0.5927,0.594,0.5998,0.6009,0.6035,0.5996,0.6143,0.6147,0.6149,0.6163,0.6168,0.6172,0,0,0,0,0,0.5703,0.5746,0.5745,0.5758,0.5825,0.5874,0.5883,0.5897,0.5884,0.5906,0.5927,0.5926,0.6025,0.6003,0.6015,0.6043,0.6142,0.6146,0.6149,0.616,0.6167,0.6172,0,0,0,0,0,0,0.571,0.5751,0.5751,0.5807,0.5837,0.5874,0.5902,0.5903,0.5939,0.5936,0.5953,0.5962,0.6015,0.6034,0.601,0.61,0.6082,0.6088,0.6086,0.6092,0.6097,0.6092,0.6,0,0,0,0,0,0.5718,0.5754,0.5788,0.5835,0.585,0.5873,0.5895,0.5904,0.5936,0.5949,0.5974,0.6006,0.6044,0.6069,0.6106,0.6165,0.6175,0.619,0.6195,0.6199,0.6205,0.6238,0.6246,0.6163,0.6163,0.6163,0,0,0.5735,0.5762,0.5784,0.5837,0.5861,0.5899,0.5884,0.5925,0.5953,0.5955,0.6007,0.6026,0.6063,0.6119,0.6146,0.6137,0.623,0.6204,0.6207,0.621,0.6243,0.6251,0.6258,0.6166,0.6165,0.6165,0,0,0.5786,0.581,0.5851,0.5876,0.5912,0.5928,0.5938,0.5975,0.5988,0.6039,0.6042,0.6076,0.6142,0.6168,0.619,0.6251,0.6251,0.6262,0.6288,0.6321,0.6327,0.6333,0.6356,0.6363,0.6267,0.6267,0.6268,0,0.5803,0.586,0.5873,0.5913,0.5937,0.5939,0.5982,0.6005,0.6053,0.6069,0.6059,0.6141,0.6166,0.6229,0.6244,0.6261,0.6274,0.6258,0.6325,0.6331,0.6337,0.6359,0.6367,0.6269,0.6269,0.6268,0.6268,0,0.5879,0.5919,0.5948,0.5993,0.6019,0.6061,0.6081,0.6106,0.6112,0.6129,0.6182,0.6212,0.6255,0.627,0.6277,0.6335,0.6328,0.6321,0.6303,0.6346,0.6366,0.6375,0.627,0.627,0.627,0.6269,0,0,0.5938,0.5989,0.5999,0.602,0.6061,0.6092,0.6133,0.6175,0.6197,0.6229,0.6266,0.6321,0.6315,0.6339,0.6349,0.6377,0.6424,0.6366,0.6368,0.6377,0.6491,0.6497,0.6506,0.6424,0.6426,0.6427,0.6488,0,0.5994,0.6068,0.608,0.6146,0.6182,0.6185,0.6222,0.6251,0.6268,0.6302,0.6321,0.636,0.6348,0.6363,0.6391,0.6412,0.6447,0.6408,0.6459,0.6461,0.6451,0.6517,0.6524,0.658,0.6496,0.6498,0.6499,0,0.6069,0.6103,0.6172,0.6207,0.6223,0.6256,0.6296,0.6328,0.6361,0.6372,0.6399,0.6405,0.6449,0.6428,0.649,0.6463,0.6485,0.6498,0.6501,0.6507,0.6483,0.6526,0.6598,0.6607,0.6512,0.6511,0.651,0,0.6106,0.6169,0.6218,0.6236,0.6278,0.6301,0.632,0.6352,0.6377,0.6411,0.6428,0.6467,0.6489,0.652,0.6536,0.6519,0.6598,0.6578,0.6608,0.6608,0.6626,0.6625,0.6703,0.6638,0.6638,0.6637,0.6637,0,0.6168,0.6211,0.6235,0.6266,0.6314,0.6328,0.6375,0.6393,0.6422,0.6456,0.6461,0.6494,0.6513,0.6549,0.6562,0.6612,0.6622,0.6632,0.6635,0.6632,0.6631,0.6648,0.6645,0.664,0.6639,0.6639,0.6638,0,0.6218,0.6236,0.6291,0.6326,0.6336,0.637,0.6401,0.6431,0.6447,0.6491,0.6503,0.6529,0.6571,0.659,0.6642,0.6651,0.6709,0.6708,0.6697,0.6699,0.6729,0.6726,0.6822,0.6835,0.676,0.676,0.6761,0,0.6257,0.629,0.6329,0.6352,0.6372,0.6409,0.6434,0.6449,0.6475,0.6515,0.6541,0.6583,0.6618,0.6685,0.6709,0.675,0.6751,0.6782,0.6758,0.6754,0.6753,0.6752,0.6755,0.6787,0.6788,0.6788,0.6789,0,0.6325,0.6332,0.6367,0.6406,0.6435,0.6467,0.6497,0.6516,0.6537,0.6565,0.6608,0.6635,0.6688,0.6731,0.6772,0.6793,0.6795,0.6796,0.6805,0.6804,0.6796,0.6802,0.6711,0.6794,0.6794,0.6793,0.6793,0.6793,0.6371,0.6401,0.6433,0.6472,0.6497,0.6525,0.6555,0.6575,0.6611,0.6655,0.6662,0.6708,0.6741,0.6797,0.6819,0.6856,0.6849,0.6862,0.6866,0.6869,0.6872,0.6789,0.6863,0.6863,0.6863,0.6863,0.6863,0,0.644,0.6461,0.6497,0.654,0.6571,0.6568,0.6602,0.6629,0.6669,0.6699,0.6733,0.6783,0.6824,0.6851,0.6892,0.6917,0.6919,0.6927,0.6926,0.6931,0.6875,0.6863,0.6925,0.6925,0.6925,0.6925,0.6925,0.6925,0.648,0.653,0.6541,0.6603,0.6623,0.6668,0.6688,0.6715,0.6739,0.6794,0.6828,0.6845,0.6874,0.6918,0.6955,0.6962,0.6978,0.6987,0.6994,0.6941,0.6935,0.6929,0.6918,0.699,0.699,0.7047,0.7048,0.7048]},{"header":{"parameterUnit":"m.s-1","parameterCategory":1,"la1":30.2991,"la2":30.254,"lo1":-89.0895,"lo2":-89.0444,"dx":0.0017,"dy":0.0017,"nx":28,"ny":28,"refTime":"2022-12-02T09:00:00:Z","depth":0,"parameterNumber":3,"parameterNumberName":"V-component_of_WINDS"},"data":[0,0,0,0,0,0,0,0,0,0,0,0,0,0,0,0,0,0,0,0,0,0,0,0,0,0,0,0,0,0,0,0,0,0,0,0,0,0,0,0,0,0,0,0,0,0,0,0,0,0,0,0,0,0,0,0,0,0,0.7018,0.7018,0,0.7049,0.705,0.705,0.7046,0.7046,0.7045,0.7045,0.7076,0.7077,0.7079,0,0,0,0,0,0,0,0,0,0,0,0,0,0.6954,0.6955,0.7018,0.7018,0.7019,0.7049,0.705,0.705,0.7046,0.7046,0.7045,0.7044,0.7076,0.7077,0.7079,0,0,0,0,0,0,0,0,0,0,0,0,0,0.6983,0.6956,0.7018,0.7021,0.7021,0.7049,0.705,0.705,0.7046,0.7046,0.7045,0.7044,0.7075,0.7077,0.7079,0.7106,0,0,0.7085,0.7086,0,0,0,0,0,0,0,0,0.6982,0.6986,0.702,0.702,0.7021,0.7043,0.7039,0.7069,0.7046,0.7037,0.7045,0.7044,0.7066,0.7068,0.7076,0.7108,0.7109,0.7085,0.7086,0.7087,0.7088,0,0,0,0,0,0,0,0.698,0.6984,0.703,0.702,0.7021,0.702,0.7023,0.7044,0.7055,0.7037,0.7037,0.7041,0.7066,0.7074,0.7077,0.7109,0.7085,0.7087,0.7088,0.7089,0.7165,0.7166,0,0,0,0,0,0,0.6977,0.6983,0.7029,0.7031,0.6999,0.7022,0.7025,0.7037,0.7055,0.7057,0.7042,0.7041,0.7071,0.7074,0.7078,0.7111,0.7087,0.7089,0.709,0.7164,0.7165,0.7166,0,0,0,0,0,0,0.6976,0.6981,0.7028,0.7007,0.7013,0.7024,0.7036,0.7038,0.7046,0.7058,0.706,0.7048,0.707,0.7075,0.7099,0.7112,0.709,0.7092,0.7163,0.7165,0.7166,0.7178,0,0,0,0,0,0,0.6974,0.6981,0.6992,0.7007,0.7014,0.705,0.7037,0.7039,0.7049,0.7048,0.7064,0.7066,0.707,0.7096,0.7101,0.7114,0.7093,0.7162,0.7164,0.7165,0.7177,0.718,0.7182,0,0,0,0,0,0.6972,0.6994,0.6992,0.6998,0.7028,0.705,0.7054,0.7058,0.705,0.7061,0.7069,0.7066,0.711,0.7099,0.7104,0.7118,0.7161,0.7163,0.7165,0.7175,0.7179,0.7182,0,0,0,0,0,0,0.6979,0.6996,0.6994,0.7022,0.7035,0.705,0.7064,0.7062,0.7077,0.7076,0.708,0.7083,0.7108,0.7115,0.7103,0.7146,0.7134,0.7138,0.714,0.7144,0.7147,0.7145,0.7095,0,0,0,0,0,0.6984,0.7001,0.7015,0.7038,0.7044,0.7053,0.7063,0.7065,0.7078,0.7083,0.7093,0.7106,0.7122,0.7133,0.7149,0.7177,0.7181,0.7189,0.7192,0.7194,0.7197,0.7213,0.7217,0.7173,0.7173,0.7173,0,0,0.6995,0.7006,0.7016,0.704,0.705,0.7068,0.7057,0.7076,0.709,0.7086,0.711,0.7117,0.7132,0.7158,0.717,0.7165,0.721,0.7197,0.7199,0.72,0.7215,0.722,0.7223,0.7174,0.7174,0.7173,0,0,0.7023,0.7033,0.7053,0.7064,0.7079,0.7084,0.7089,0.7104,0.7109,0.7133,0.7131,0.7146,0.7174,0.7185,0.7194,0.7225,0.7223,0.723,0.7245,0.726,0.7264,0.7267,0.7279,0.7283,0.7233,0.7233,0.7233,0,0.7034,0.7061,0.7064,0.7084,0.7094,0.7091,0.7112,0.7122,0.7142,0.7149,0.7142,0.7178,0.7188,0.7217,0.7224,0.7231,0.7237,0.7229,0.7263,0.7266,0.7269,0.7281,0.7285,0.7234,0.7234,0.7233,0.7233,0,0.7074,0.7092,0.7107,0.7126,0.7138,0.7158,0.7164,0.7176,0.7176,0.7182,0.7206,0.7217,0.7236,0.7242,0.7243,0.7271,0.7268,0.7262,0.7251,0.7274,0.7285,0.7289,0.7235,0.7235,0.7234,0.7234,0,0,0.7109,0.713,0.7135,0.7144,0.716,0.7174,0.7194,0.7212,0.7222,0.7235,0.7252,0.7275,0.727,0.7281,0.7282,0.7295,0.732,0.7288,0.7289,0.7294,0.7352,0.7357,0.7362,0.7318,0.7319,0.7319,0.7351,0,0.714,0.7175,0.7178,0.721,0.7227,0.7224,0.7241,0.7253,0.7258,0.7273,0.7279,0.7297,0.7288,0.7294,0.7307,0.7314,0.7332,0.7312,0.7334,0.7335,0.7332,0.7367,0.7373,0.7402,0.7355,0.7356,0.7356,0,0.718,0.7195,0.7228,0.7242,0.7249,0.7265,0.7281,0.7296,0.7309,0.7312,0.7323,0.7323,0.7343,0.733,0.7357,0.7344,0.7353,0.7357,0.7358,0.7362,0.7348,0.7372,0.7411,0.7416,0.7363,0.7362,0.7362,0,0.7204,0.7232,0.7255,0.7263,0.7279,0.729,0.7297,0.731,0.732,0.7334,0.7341,0.7357,0.7366,0.7378,0.7382,0.7373,0.741,0.7397,0.7413,0.7413,0.7422,0.7422,0.7464,0.7426,0.7426,0.7426,0.7426,0,0.7238,0.7259,0.7266,0.7281,0.7304,0.7307,0.7329,0.7336,0.7346,0.7362,0.736,0.7375,0.7379,0.7394,0.7397,0.7419,0.7423,0.7426,0.7427,0.7427,0.7427,0.7434,0.7432,0.7427,0.7427,0.7427,0.7426,0,0.7269,0.7274,0.73,0.7313,0.7317,0.7334,0.7345,0.7359,0.7364,0.7383,0.7388,0.7396,0.7414,0.7418,0.744,0.7442,0.7468,0.7467,0.7464,0.7465,0.748,0.7479,0.753,0.7537,0.7493,0.7493,0.7494,0,0.7291,0.7307,0.7322,0.7332,0.734,0.7357,0.7368,0.7371,0.7382,0.7397,0.741,0.7427,0.7441,0.747,0.7477,0.7493,0.7493,0.7509,0.7495,0.7495,0.7494,0.7493,0.7495,0.7512,0.7513,0.7513,0.7513,0,0.733,0.7332,0.7348,0.7364,0.7377,0.739,0.7403,0.7411,0.7416,0.7428,0.7447,0.7458,0.7479,0.7497,0.7513,0.752,0.7518,0.7517,0.7522,0.7523,0.7521,0.7523,0.7473,0.7517,0.7516,0.7516,0.7516,0.7516,0.7358,0.7372,0.7385,0.7402,0.7412,0.7424,0.7437,0.7444,0.7459,0.7477,0.7478,0.7498,0.7509,0.7531,0.7539,0.7554,0.7549,0.7556,0.7558,0.756,0.7561,0.7518,0.7557,0.7557,0.7557,0.7557,0.7557,0,0.7398,0.7406,0.7422,0.7439,0.7453,0.7449,0.7462,0.7474,0.7492,0.7503,0.7517,0.7538,0.7555,0.7563,0.7579,0.759,0.7589,0.7594,0.7594,0.7596,0.7564,0.7559,0.7595,0.7595,0.7595,0.7595,0.7595,0.7595,0.7421,0.7444,0.7447,0.7476,0.7483,0.7503,0.7511,0.7522,0.7531,0.7554,0.7568,0.7573,0.7583,0.76,0.7615,0.7617,0.7624,0.763,0.7631,0.7602,0.7598,0.7594,0.759,0.7631,0.7631,0.7661,0.7662,0.7662]}]]